Flag Weather past 2 weeks in Longueuil, Quebec, Canada

Now
23 °F

Cold.


Feels Like: 18 °F
Forecast: 20 / 28 °F
Wind: 3 mph from Southwest

Location: Mc Tavish

Current Time: Nov 28, 2014 at 7:29:10 PM

Latest Report: Nov 28, 2014 at 7:00 PM


Visibility: N/A

Pressure: 30.16 "Hg

Humidity: 64%

Dew point: 13 °F

Location of LongueuilLocation

Historic Weather in Longueuil — Graph

°F

Longueuil temperature yesterday

Maximum temperature yesterday: 32 °F (at 12:00 AM)
Minimum temperature yesterday: 27 °F (at 11:00 PM)
Average temperature yesterday: 29 °F

Past Weeks' High & Low Weather Summary

 TemperatureHumidityPressure
High62 °F (Nov 24, 7:00 PM)100% (Nov 17, 12:00 PM)30.33 "Hg (Nov 17, 12:00 PM)
Low20 °F (Nov 19, 5:00 AM)40% (Nov 20, 2:00 PM)29.27 "Hg (Nov 24, 4:00 PM)
Average33 °F71%29.92 "Hg
* Reported Nov 13 6:00 PM — Nov 28 6:00 PM, Longueuil, Weather by CustomWeather, © 2014

Note: Actual official high and low records may vary slightly from our data, if they occured in-between our weather recording intervals... More about our weather records

Advertising

Longueuil weather history for previous 24 hours

 ConditionsComfort  
Time TempWeatherWind HumidityBarometerVisibility
6:00 PM
Nov 28
23 °FCold.5 mph63%30.15 "HgN/A
5:00 PM23 °FCold.3 mph70%30.14 "HgN/A
4:00 PM24 °FCold.6 mph66%30.12 "HgN/A
3:00 PM24 °FCold.7 mph68%30.10 "HgN/A
2:00 PM25 °FChilly.8 mph66%30.09 "HgN/A
1:00 PM27 °FChilly.7 mph61%30.08 "HgN/A
12:00 PM27 °FChilly.2 mph66%30.08 "HgN/A
11:00 AM25 °FChilly.3 mph76%30.09 "HgN/A
10:00 AM24 °FCold.1 mph83%30.10 "HgN/A
9:00 AM23 °FCold.2 mph86%30.09 "HgN/A
8:00 AM23 °FCold.2 mph85%30.08 "HgN/A
7:00 AM23 °FCold.2 mph85%30.07 "HgN/A
6:00 AM23 °FCold.2 mph86%30.06 "HgN/A
5:00 AM25 °FCold.1 mph88%30.04 "HgN/A
4:00 AM25 °FChilly.2 mph87%30.04 "HgN/A
3:00 AM26 °FChilly.1 mph85%30.03 "HgN/A
2:00 AM26 °FChilly.1 mph84%30.03 "HgN/A
1:00 AM27 °FChilly.2 mph73%30.03 "HgN/A
12:00 AM27 °FChilly.3 mph70%30.04 "HgN/A
11:00 PM
Nov 27
27 °FChilly.2 mph69%30.05 "HgN/A
10:00 PM28 °FChilly.1 mph68%30.04 "HgN/A
9:00 PM29 °FChilly.3 mph63%30.04 "HgN/A
8:00 PM28 °FChilly.2 mph67%30.04 "HgN/A
7:00 PM28 °FChilly.2 mph64%30.03 "HgN/A
Weather by CustomWeather, © 2014

See weather overviewHow to use our weather pages